BER7300 EDDB-EPWA

Flight info

Callsign BER7300
Flight time N/A
Altitude 35000
Route ARSAP4N/24L ARSAP Y209 KELOD DCT OBOKU DCT DOSIX DCT BIMPA BIMPA6U
Aircraft A321/M-SDE3FGHIRWY/LB1

Departure

Time N/A
Airport Berlin Brandenburg Airport (EDDB)

Arrival

Time 2026-05-04 20:01
Airport Warsaw Chopin Airport (EPWA)
Time Latitude Longitude Altitude Speed Heading
2026-05-04 19:51 51.96207 20.79106 4001 ft 276 kts 127°
2026-05-04 19:51 51.95840 20.79974 4002 ft 276 kts 127°
2026-05-04 19:53 51.89523 20.94936 4006 ft 276 kts 127°
2026-05-04 19:53 51.88380 20.97645 4002 ft 277 kts 127°
2026-05-04 19:53 51.87295 21.00218 4003 ft 277 kts 127°
2026-05-04 19:53 51.86214 21.02791 4006 ft 277 kts 127°
2026-05-04 19:54 51.85133 21.05360 4005 ft 276 kts 127°
2026-05-04 19:54 51.84195 21.08071 4001 ft 279 kts 109°
2026-05-04 19:54 51.84030 21.11150 4004 ft 282 kts 81°
2026-05-04 19:54 51.84752 21.14071 4005 ft 282 kts 53°
2026-05-04 19:55 51.86203 21.16144 4003 ft 279 kts 27°
2026-05-04 19:55 51.87939 21.17548 4005 ft 279 kts 22°
2026-05-04 19:55 51.89703 21.18858 3934 ft 278 kts 21°
2026-05-04 19:55 51.91540 21.19566 3544 ft 269 kts 353°
2026-05-04 19:56 51.92159 21.19415 3426 ft 265 kts 341°
2026-05-04 19:57 52.02180 21.09239 2999 ft 253 kts 328°
2026-05-04 19:57 52.03685 21.07938 2924 ft 236 kts 329°
2026-05-04 19:58 52.05105 21.06708 2652 ft 227 kts 328°
2026-05-04 19:58 52.06456 21.05533 2359 ft 220 kts 328°
2026-05-04 19:58 52.07786 21.04376 2076 ft 214 kts 328°
2026-05-04 19:58 52.09080 21.03250 1802 ft 208 kts 328°
2026-05-04 19:59 52.10315 21.02177 1542 ft 191 kts 329°
2026-05-04 19:59 52.11419 21.01216 1303 ft 170 kts 329°
2026-05-04 19:59 52.12395 21.00366 1091 ft 149 kts 329°
2026-05-04 19:59 52.13275 20.99598 872 ft 139 kts 330°
2026-05-04 20:00 52.14117 20.98859 681 ft 136 kts 329°
2026-05-04 20:00 52.14946 20.98133 510 ft 135 kts 330°
2026-05-04 20:00 52.15771 20.97422 365 ft 133 kts 330°
2026-05-04 20:00 52.16518 20.96761 335 ft 107 kts 332°
2026-05-04 20:01 52.16964 20.96368 333 ft 38 kts 333°
2026-05-04 20:01 52.17116 20.96271 331 ft 15 kts 344°
2026-05-04 20:01 52.17251 20.96243 335 ft 21 kts
2026-05-04 20:01 52.17368 20.96264 333 ft 11 kts 20°
2026-05-04 20:02 52.17418 20.96358 333 ft 11 kts 60°
2026-05-04 20:02 52.17457 20.96472 334 ft 11 kts 63°
2026-05-04 20:02 52.17463 20.96563 337 ft 6 kts 114°
2026-05-04 20:02 52.17429 20.96605 337 ft 6 kts 148°
2026-05-04 20:03 52.17390 20.96639 333 ft 8 kts 153°
2026-05-04 20:03 52.17336 20.96686 334 ft 10 kts 152°
2026-05-04 20:03 52.17277 20.96738 334 ft 11 kts 151°
2026-05-04 20:03 52.17211 20.96795 335 ft 11 kts 152°
2026-05-04 20:04 52.17144 20.96854 334 ft 11 kts 152°
2026-05-04 20:04 52.17118 20.96882 335 ft 3 kts 131°
2026-05-04 20:04 52.17116 20.96908 335 ft 2 kts 86°
2026-05-04 20:04 52.17128 20.96950 331 ft 7 kts 60°
2026-05-04 20:05 52.17147 20.97006 335 ft 2 kts 60°
2026-05-04 20:05 52.17149 20.97012 336 ft 0 kts 60°